Location: Dead Woman Crossing
(43.5369°N, 106.3228°W)
Time: 02:46:24
(UTC+00:00)

COSMOS 2251 DEB - Visible Passes

Search period start: 10 December 2022 00:00
Search period end: 20 December 2022 00:00
Orbit: 754 x 820 km, 74.1° (Epoch: 08 December)

Date Brightness Start Highest point End Pass type
(mag) Time Alt. Az. Time Alt. Az. Time Alt. Az.
17 Dec ? 01:46:29 10° N 01:46:41 11° N 01:46:41 11° N visible
18 Dec ? 01:15:38 10° N 01:16:24 13° NNE 01:16:24 13° NNE visible
18 Dec ? 02:57:04 10° NNW 02:57:06 10° NNW 02:57:06 10° NNW visible
19 Dec ? 00:45:09 10° NNE 00:46:15 12° NNE 00:46:15 12° NNE visible
19 Dec ? 02:25:41 10° NNW 02:26:57 18° NNW 02:26:57 18° NNW visible
